Volver al catálogo

METEOR 2-17 DEB

LostPO
NORAD 38287·DEBRIS·🇷🇺 Russia

Lanzado Jan 30, 1988 desde Plesetsk Cosmodrome

Loading…

Próximos Pases (próximas 24 horas)

TLE

ObsoletoSource: Space-Track

Época: Sep 9, 2024, 05:58 UTC

1 38287U 88005AQ  24253.24916758  .00007585  00000-0  51191-2 0  9991
2 38287  82.5405  76.2191 0017505 256.8996 227.9064 14.00226560   346

Sigue METEOR 2-17 DEB en tiempo real con AllMySat

Download on the App Store